Main page
METAR-TAF:

METAR-TAF

Airports :

Oil platform

K13-a, Netherlands

latitude: 53-13-04N, longitude: 3-13-13E, elevation: 31 m

Current weather observation

The report was made 27 minutes ago, at 17:25 UTC
Wind 15 kt from the South/Southeast
Temperature 12°C
Humidity 88%
Pressure 1022 hPa

METAR: EHJR 151725Z AUTO 16015KT //// // ///////// 12/10 Q1022 RE// W///H8

Time: 18:52 (17:52 UTC)


TAF: missing

Weather observations and forecasts of more than 4000 airports (METAR and TAF reports).

The available stations are represented by yellow and red dots on the map.

Hover mouse over dot to see the name of the station.

Then click to see weather observations and forecasts.

To change the map : click on the green buttons with a black cross to zoom in, on the green button with a dash to zoom out, or on the green arrows for adjacent maps.


METAR-TAF: